Regional Weather Roundup
Issued by NWS Sterling, VA

Home | Current Version | Previous Version | Text Only | Print | Product List | Glossary Off
Versions: 1 2 3 4 5 6 7 8 9 10 11 12 13 14 15 16 17 18 19 20 21 22 23 24 25 26 27 28 29 30 31 32 33 34 35 36 37 38 39 40 41 42 43 44 45 46 47 48 49 50

000
ASUS41 KLWX 280811
RWRLWX

REGIONAL WEATHER ROUNDUP
NATIONAL WEATHER SERVICE BALTIMORE MD/WASHINGTON DC
400 AM EDT FRI APR 28 2017

Note: "FAIR" indicates few or no clouds below 12,000 feet
with no significant weather and/or obstructions to visibility.
 TC=TEMPERATURE CELSIUS

 * =Non NWS site. Station does not report precipitation (e.g. rain,
    snow, etc.), thunder, or fog.

DCZ001-MDZ009-015-VAZ040>042-051-053>054-280900-
WASHINGTON METRO

CITY           SKY/WX    TMP DP  RH WIND       PRES   REMARKS
WASHINGTON NAT PTCLDY    67  61  81 S6        29.88R
DULLES         CLEAR     64  59  83 CALM      29.89R
ANDREWS AFB    MOCLDY    67  60  76 SW7       29.87R
FT BELVOIR     CLEAR     68  59  72 CALM      29.87S
QUANTICO       CLEAR     66  64  93 S5        29.89R
COLLEGE PARK*  CLOUDY    64  60  88 CALM      29.87S
LEESBURG*      CLEAR     63  61  94 CALM      29.90R
MANASSAS*        N/A     63  60  90 CALM      29.89R

$$

MDZ006>007-011-014-280900-
BALTIMORE METRO

CITY           SKY/WX    TMP DP  RH WIND       PRES   REMARKS
BWI AIRPORT    CLOUDY    67  62  84 CALM      29.86S
MD SCIENCE CTR   N/A     68  60  75 MISG      29.87R
MARTIN STATE   CLOUDY    64  64 100 CALM      29.88S
ANNAPOLIS      LGT RAIN  66  62  87 CALM      29.86R
FORT MEADE*    CLOUDY    61  59  94 CALM      29.89F

$$

MDZ012-015-019>023-280900-
MARYLAND EASTERN SHORE

CITY           SKY/WX    TMP DP  RH WIND       PRES   REMARKS
OCEAN CITY     CLOUDY    67  62  84 SW9       29.91S
SALISBURY      CLOUDY    69  64  84 SW12      29.90R
BAY BRIDGE AP* LGT RAIN  68  61  77 S6        29.88R
CAMBRIDGE*       N/A     66  63  88 CALM      29.90R
EASTON*        CLOUDY    68  64  85 SW8       29.92S

$$

MDZ017>025-280900-
SOUTHERN MARYLAND

CITY           SKY/WX    TMP DP  RH WIND       PRES   REMARKS
PATUXENT RIVER TSTM      68  66  93 SW7       29.88R
ST INIGOES     LGT RAIN  69  63  81 S10       29.89R
LEONARDTOWN*   CLOUDY    64  63  94 SW6       29.91F

$$

MDZ003>005-280900-
NORTH CENTRAL MARYLAND

CITY           SKY/WX    TMP DP  RH WIND       PRES   REMARKS
FREDERICK*     CLEAR     64  64 100 SW5       29.91R
HAGERSTOWN APT PTCLDY    66  61  84 SW5       29.88R
WESTMINSTER*   CLEAR     64  61  88 SW6       29.89R

$$

MDZ501>502-280900-
WESTERN MARYLAND

CITY           SKY/WX    TMP DP  RH WIND       PRES   REMARKS
OAKLAND*       CLOUDY    52  50  93 W9        29.98R
CUMBERLAND*    CLOUDY    61  61 100 CALM      29.96  VSB 1/4

$$

VAZ025>031-280900-
SHENANDOAH VALLEY

CITY           SKY/WX    TMP DP  RH WIND       PRES   REMARKS
WINCHESTER*    CLEAR     61  57  88 SW5       29.91R
FRONT ROYAL*   CLEAR     64  59  82 SW7       29.90R
LURAY*         CLEAR     61  59  94 SW6       29.93R
NEW MARKET*    CLEAR     60  58  91 CALM      29.92R
STAUNTON*      CLEAR     54  53  99 CALM      29.96R FOG
WAYNESBORO*    CLEAR     57  57 100 CALM      29.95R

$$

WVZ021-048>050-054>055-280900-
EASTERN WEST VIRGINIA PANHANDLE

CITY           SKY/WX    TMP DP  RH WIND       PRES   REMARKS
MARTINSBURG    CLEAR     63  58  83 S7        29.88R
PETERSBURG*    FOG       58  58  99 CALM      29.95R VSB 1/4

$$

VAZ036>039-050-280900-
CENTRAL FOOTHILLS

CITY           SKY/WX    TMP DP  RH WIND       PRES   REMARKS
CHARLOTTESVILL CLEAR     62  60  93 S3        29.91R FOG
CULPEPER*      CLEAR     60  60  99 CALM      29.91R
ORANGE*        PTCLDY    59  59 100 SW6       29.90R
GORDONSVILLE*  PTCLDY    60  60  99 CALM      29.91R
WARRENTON*     CLEAR     61  56  85 CALM      29.89R

$$

VAZ055>057-280900-
NORTH AND CENTRAL PIEDMONT

CITY           SKY/WX    TMP DP  RH WIND       PRES   REMARKS
FREDERICKSBRG* CLEAR     69  65  88 SW7       29.89R
STAFFORD*      CLEAR     65  62  91 CALM      29.93R

$$

NCZ024-NYZ072-PAZ021-071-VAZ022-071-280900-
OTHER REGIONAL OBSERVATIONS

CITY           SKY/WX    TMP DP  RH WIND       PRES   REMARKS
NEW YORK CITY  LGT RAIN  58  58 100 N3        29.89S FOG
PHILADELPHIA   CLOUDY    66  62  87 S6        29.87R
PITTSBURGH     CLEAR     50  48  93 W6        29.94R
ROANOKE        CLEAR     57  57 100 CALM      29.97R FOG
RICHMOND       CLOUDY    67  66  97 S8        29.92R
RALEIGH        LGT RAIN  72  65  78 SW8       29.95R

$$

ANZ530>537-280900-
MARINE OBSERVATIONS

STATION/POSITION TIME  TEMP    WIND        PRES
                       AIR SEA DIR/SP/G
                 (UTC) (F)     (DEG/KT/KT) (MB)
THOMAS PT LIGHT  0800   67 58  210/ 14/ 15   N/A
BALT KEY BRIDGE  0736   69     240/  7/  8 1011.4R
COVE POINT       0736   67     240/ 10/ 15 1012.6R
LEWISETTA        0736   71 66  230/ 10/ 12 1012.0R
SOLOMONS ISLAND  0736   66 61  230/  6/  8   N/A
PINEY POINT      0736          240/  9/ 11   N/A

$$




USA.gov is the U.S. government's official web portal to all federal, state and local government web resources and services.